Theta_e
299 290 286 285 288 291 293 293 293 293 293 292 291 289 287 287 288 291 291 291 293 289 287 288 289 289 290 292 295 297 297 297 297 297 297 298 299 300 299 299 300 301 301 308 309 311 311 310 306 306 305 304 303 303 302 302 302 303 306 306 305 306 307 307 307 307 306 306 305 304 305 306 307 306 306 306 305 305 304 306 307 308 306 306 307 307
299 288 288 291 292 293 294 296 294 293 292 291 289 287 286 288 286 291 293 291 291 288 286 289 289 290 292 294 295 297 296 296 297 297 297 298 299 299 300 301 301 302 307 307 307 308 308 306 307 305 304 305 301 301 301 300 302 302 304 306 305 305 306 307 307 306 306 306 306 305 305 305 306 305 305 305 305 305 306 306 306 308 306 307 307 307
289 286 290 294 297 298 296 297 296 293 291 291 288 287 286 287 290 292 291 292 293 290 286 288 288 289 291 293 295 295 295 296 297 298 298 298 298 299 300 300 302 302 304 304 305 306 306 308 307 304 304 303 302 301 300 300 301 302 303 305 305 305 306 305 307 306 305 306 305 305 304 306 304 304 305 305 305 306 305 306 306 308 306 306 306 307
285 288 293 295 295 295 295 294 293 292 292 287 286 284 283 288 287 284 291 290 292 289 287 288 287 289 293 295 295 297 297 297 299 299 300 300 298 300 299 301 301 300 301 302 303 302 304 306 307 305 303 303 302 301 299 301 301 303 303 303 304 304 305 305 306 306 306 306 305 305 306 306 305 304 305 305 305 305 304 305 306 307 306 306 306 307
288 295 294 295 294 295 293 294 292 288 285 288 288 286 285 287 289 288 288 291 293 292 291 288 288 289 292 292 293 295 297 299 300 300 299 299 303 301 302 301 302 299 300 302 302 303 302 303 305 305 305 303 302 301 300 300 301 304 302 303 304 304 304 305 305 306 306 307 306 306 306 305 305 304 304 303 303 304 304 305 305 306 306 306 307 307
291 294 296 294 295 294 292 290 289 289 283 285 289 289 288 291 290 290 291 290 286 284 290 290 281 281 288 289 290 293 293 295 296 297 298 298 299 299 299 300 301 304 303 302 302 302 303 303 304 304 303 303 302 302 303 301 302 302 302 302 303 303 304 304 305 306 307 306 305 305 304 303 302 301 302 302 303 304 304 305 306 306 306 307 307 306
292 291 294 294 292 293 292 290 291 290 284 283 285 288 292 291 290 290 288 288 281 281 288 291 281 279 286 288 291 293 292 293 296 296 297 299 299 298 300 300 301 302 303 303 303 304 303 303 303 304 304 304 303 303 303 303 302 302 302 302 303 303 304 305 304 305 306 305 305 305 304 303 303 302 302 302 302 304 304 305 305 305 305 307 307 306
291 292 291 291 293 291 289 286 292 290 285 283 290 292 291 290 289 289 290 287 284 288 286 289 286 278 281 287 292 293 291 292 294 296 297 298 299 298 298 299 300 300 300 301 301 302 302 302 302 303 305 304 303 303 302 302 302 301 301 301 302 302 304 305 305 305 305 305 304 304 303 303 303 302 302 303 304 304 304 304 305 304 305 306 306 306
293 289 290 289 288 286 285 291 291 293 287 288 291 293 292 292 292 291 287 285 285 283 281 283 285 280 279 287 294 294 290 291 292 294 295 296 297 298 298 299 300 300 301 300 301 301 302 302 302 301 302 302 301 302 302 302 302 302 301 301 301 302 303 304 305 305 304 305 304 304 304 302 303 302 303 303 303 304 304 303 303 304 304 305 305 305
293 293 293 293 288 285 289 288 289 291 289 292 293 293 293 292 291 291 285 285 284 282 279 282 283 278 279 287 290 292 289 291 292 294 294 296 297 298 299 301 300 300 300 301 300 300 301 301 302 301 301 301 302 301 302 302 302 302 301 301 301 301 302 304 304 304 304 304 304 303 303 302 301 302 303 303 303 303 303 303 303 303 304 304 304 304
294 294 295 294 291 293 288 289 290 291 292 293 292 292 290 289 286 287 285 284 282 276 280 284 284 281 276 284 287 287 293 293 292 293 295 297 298 299 301 298 299 298 298 298 299 301 302 301 301 301 301 301 301 300 300 301 301 301 301 300 300 301 302 303 304 303 303 304 303 303 303 302 302 301 302 301 302 303 302 302 303 303 303 303 304 303
292 293 292 293 294 294 292 289 291 290 292 293 288 285 284 284 285 283 283 283 277 276 281 281 285 285 275 281 288 291 292 292 292 293 293 295 296 298 299 299 298 297 299 299 299 300 302 302 301 301 301 301 300 299 299 300 301 301 301 301 300 300 301 302 303 303 304 304 303 302 303 303 302 302 303 302 302 303 302 302 303 302 302 302 303 303
289 290 291 291 293 294 290 289 288 290 290 288 286 285 279 278 279 277 279 275 275 276 281 283 285 281 280 285 289 291 293 294 294 294 296 295 295 297 298 299 298 299 298 298 299 300 303 302 302 302 301 301 299 299 300 301 301 301 301 301 300 300 301 302 303 303 303 303 303 303 303 303 304 303 303 303 303 303 303 303 302 302 302 302 302 302
286 290 291 291 291 292 294 286 284 282 284 285 282 281 279 275 274 271 275 279 279 279 281 282 286 279 284 288 292 292 293 294 295 297 298 297 296 297 298 299 299 300 299 300 301 302 302 302 302 302 302 302 302 301 300 300 301 301 302 301 300 300 301 301 302 302 302 303 303 303 303 304 304 304 303 304 304 304 304 303 303 303 303 303 303 303
280 282 287 289 285 292 292 291 289 289 285 286 287 285 280 281 278 272 276 274 276 279 281 282 279 277 279 286 291 294 295 294 294 295 296 296 297 297 297 297 298 297 299 299 300 301 301 301 301 302 302 302 302 301 300 299 299 300 300 301 300 300 301 301 302 302 302 302 302 302 303 303 304 304 304 304 305 304 304 303 303 304 303 303 303 303
284 284 286 288 289 290 290 293 292 291 287 287 289 288 281 281 283 277 279 277 277 277 277 278 277 281 285 292 294 296 294 294 293 294 295 295 295 297 296 298 297 297 298 300 300 300 300 301 301 302 302 302 301 301 300 300 300 300 300 300 300 300 301 301 301 302 302 302 302 302 302 303 303 304 304 304 304 304 305 304 304 304 303 303 303 303
285 282 286 290 291 289 288 291 292 291 280 285 285 281 282 286 286 281 277 278 277 275 275 280 282 286 291 292 294 295 292 291 292 293 293 294 295 296 296 298 297 298 298 301 301 299 299 300 301 301 301 301 301 300 301 302 301 301 301 300 300 300 300 302 302 302 302 302 302 302 302 302 303 303 303 304 304 303 304 304 303 303 303 303 303 303
282 284 286 287 286 288 290 289 289 291 290 283 280 282 287 289 287 280 276 278 277 274 276 282 278 280 282 280 291 290 291 290 290 291 292 294 294 295 296 297 298 298 300 299 299 299 299 300 300 301 301 301 301 301 301 302 301 301 302 301 300 300 300 301 302 302 302 301 301 302 302 302 303 303 303 303 303 303 303 303 303 303 303 303 303 304
288 280 283 285 286 288 289 289 288 290 290 287 284 286 283 279 277 281 279 271 271 271 274 278 280 281 281 284 288 287 289 290 291 291 291 293 294 294 296 298 299 299 298 298 298 298 299 299 302 301 301 301 300 300 300 301 302 301 300 301 301 301 301 301 302 302 302 302 303 303 302 302 302 302 302 302 301 301 302 302 303 303 303 303 302 303
289 280 281 283 286 287 285 283 281 282 288 287 289 284 282 282 279 278 279 279 279 272 272 274 279 278 287 286 289 290 291 291 291 291 291 293 294 295 296 298 299 298 298 300 299 298 299 300 299 300 300 299 300 300 300 300 300 300 301 300 300 301 301 301 301 302 302 302 302 303 302 302 302 302 302 302 301 302 301 302 302 302 301 303 303 303
284 284 278 281 283 285 281 283 282 285 282 281 281 280 281 281 283 281 280 279 277 274 275 273 274 279 289 292 290 290 291 291 292 292 293 293 294 295 295 298 298 300 300 298 296 297 297 297 298 300 298 298 298 298 298 299 300 300 300 300 300 300 300 301 301 301 302 302 302 301 301 302 302 302 302 302 302 302 301 301 301 302 302 301 302 302
284 282 280 280 280 278 282 286 287 288 287 284 283 281 284 280 278 274 275 281 279 277 274 275 275 283 290 294 293 291 292 294 293 294 294 294 294 295 297 296 298 298 297 295 296 296 295 295 295 296 298 298 297 297 297 298 297 297 299 300 299 299 299 299 300 301 301 301 302 301 301 301 301 302 302 301 301 301 301 301 301 302 301 301 302 302
288 286 283 280 281 283 285 284 285 285 283 283 284 282 286 283 282 278 273 276 277 278 276 277 274 281 291 293 292 292 291 291 293 294 294 296 297 296 298 298 297 297 296 295 295 295 295 294 294 295 296 296 297 297 297 296 298 298 298 298 299 300 300 300 300 301 301 301 301 301 301 301 301 301 301 301 301 301 301 301 301 301 302 301 301 301
292 284 281 283 283 280 281 285 284 284 284 284 283 283 284 284 284 282 281 279 279 277 276 276 273 281 291 291 291 291 291 291 293 293 293 293 294 296 297 296 296 295 295 296 296 296 296 294 294 294 295 296 297 296 297 297 297 298 298 298 297 298 298 298 298 299 299 298 299 299 299 300 300 300 301 300 301 300 301 301 301 300 301 300 299 300
283 282 282 279 279 281 279 280 279 280 282 281 282 284 284 285 286 284 282 281 279 279 279 277 274 281 292 292 292 292 292 292 292 292 292 293 293 294 294 295 295 295 295 296 295 295 295 294 294 294 294 294 295 295 296 297 297 296 297 296 297 297 297 298 297 298 297 297 298 298 298 298 299 299 299 299 299 299 299 299 300 299 300 300 300 299
285 283 282 276 274 273 272 273 276 278 279 281 281 284 285 285 284 281 278 279 276 278 281 277 278 286 291 290 291 291 290 290 291 292 292 292 293 294 294 295 295 295 295 294 294 294 295 295 294 294 294 294 296 295 296 296 296 296 295 295 296 296 297 297 297 296 296 295 296 295 296 296 295 297 297 297 297 297 298 299 299 299 299 299 299 299
283 284 283 282 280 279 280 283 283 284 280 278 280 283 284 285 286 284 282 279 279 280 279 282 283 285 287 289 290 292 292 292 292 291 291 292 291 294 293 295 295 295 294 294 294 294 293 293 294 294 294 294 294 294 295 295 295 295 295 295 296 296 296 296 295 296 295 295 294 294 294 295 295 296 296 296 297 297 297 298 298 298 299 298 299 298
283 282 283 284 284 286 286 286 285 285 281 282 282 282 284 284 285 284 282 280 284 280 278 284 286 284 286 289 290 291 292 292 293 294 293 290 291 294 296 294 295 294 293 293 292 293 294 294 294 294 294 294 295 294 294 294 295 295 294 294 295 294 294 295 294 294 294 294 294 293 294 294 294 295 296 295 295 295 296 296 296 296 297 296 297 297
281 280 283 283 284 285 286 287 286 284 284 283 284 283 283 284 283 282 283 285 284 281 280 284 284 284 288 290 292 293 293 293 293 294 294 293 291 292 292 292 292 292 292 292 293 293 293 293 293 294 294 295 295 295 294 294 293 293 293 293 293 293 293 293 293 293 293 292 293 293 293 294 294 295 295 294 295 295 295 295 295 295 296 295 296 298
282 282 282 282 283 284 285 285 285 284 285 285 284 284 285 284 284 285 285 286 286 284 286 287 287 287 290 291 293 294 295 294 294 294 294 293 293 291 291 291 292 292 292 292 292 292 292 293 292 292 293 293 294 294 294 293 292 292 292 292 292 292 293 293 292 291 292 292 292 293 293 294 294 295 295 295 294 294 294 294 294 294 293 294 294 294
284 280 286 281 279 282 284 284 283 284 283 283 284 284 284 285 285 285 285 285 286 285 287 287 286 286 291 294 294 295 296 295 294 293 293 294 294 293 291 291 291 292 292 292 291 291 291 292 292 292 292 292 293 293 294 293 292 291 291 291 292 292 292 291 291 291 291 292 292 293 293 293 294 293 293 293 293 293 293 294 293 292 292 292 291 293
282 280 280 279 278 279 281 281 282 283 283 282 282 283 283 284 283 284 283 286 284 283 285 284 283 284 290 293 293 294 294 293 293 293 293 294 293 292 291 291 291 291 292 292 291 290 291 291 291 292 292 292 293 293 292 292 291 290 291 291 291 290 290 290 291 291 291 292 293 293 293 293 293 292 292 292 293 292 291 292 291 291 291 290 290 291
281 280 278 278 276 277 280 280 278 276 276 276 277 282 285 285 286 285 286 286 287 288 284 281 283 289 291 292 290 291 291 292 292 292 292 292 292 291 291 291 292 292 292 291 291 291 291 291 291 292 292 293 293 293 292 291 290 290 291 290 289 288 288 289 289 291 291 291 290 290 290 290 290 290 290 291 291 290 291 290 290 289 289 288 288 289
281 280 279 280 274 274 273 274 275 274 272 274 282 286 287 285 285 283 284 286 288 289 287 289 289 290 290 290 290 290 291 291 292 293 292 293 291 291 289 291 292 292 292 292 291 291 292 291 293 293 293 292 291 291 289 289 290 290 288 288 287 288 288 289 289 289 288 288 289 288 288 289 289 290 289 290 289 289 289 289 288 287 287 287 288 288
281 280 279 279 275 276 272 273 274 271 274 282 283 287 288 288 288 286 287 287 288 289 289 289 289 290 291 292 292 292 293 292 291 290 291 292 292 291 292 293 293 292 292 292 291 291 291 292 293 292 290 288 289 288 288 289 288 286 286 287 287 287 288 287 287 287 288 286 287 286 287 287 287 288 288 288 289 288 288 287 287 287 286 287 287 287
281 280 280 278 279 279 273 274 266 273 276 280 281 280 283 285 284 284 283 287 288 288 289 288 290 291 292 292 293 293 293 289 289 290 292 293 292 293 293 293 293 292 291 291 291 292 293 293 292 291 289 288 287 287 287 287 285 285 286 285 287 285 285 286 286 286 285 285 285 286 286 286 286 286 286 287 287 287 287 286 286 286 285 287 286 286
284 282 281 277 279 275 275 275 276 281 281 283 280 280 283 281 282 283 279 283 288 289 289 289 290 291 292 292 293 293 291 288 287 292 295 292 293 294 293 293 293 291 292 293 293 293 291 291 290 289 288 286 286 286 286 285 285 285 285 286 285 285 285 285 285 284 284 284 285 285 285 285 285 285 285 286 286 286 286 286 286 286 287 287 285 286
283 283 282 279 277 281 276 274 274 273 272 278 284 287 288 289 288 288 284 284 288 290 291 291 290 291 291 292 292 291 287 287 286 289 293 291 292 293 292 292 293 293 293 291 290 289 288 286 286 285 287 285 284 283 284 285 285 284 285 285 284 284 284 283 283 282 282 283 283 284 283 284 283 284 284 284 285 285 285 284 284 285 287 286 285 284
277 278 279 281 277 277 276 273 273 271 276 281 283 286 287 289 288 285 279 280 285 290 291 291 291 291 291 291 292 289 286 283 285 289 293 291 291 293 292 292 292 291 290 289 289 288 286 285 284 284 284 283 282 282 283 284 284 284 286 285 284 282 281 280 280 281 282 283 283 283 283 283 283 282 283 283 283 283 284 284 285 284 283 284 284 284
275 277 277 277 277 278 276 273 274 276 277 281 284 285 285 285 288 283 273 275 287 289 292 292 291 291 291 292 290 288 287 284 286 290 291 294 292 290 291 290 288 286 285 284 283 285 285 284 285 282 280 279 279 280 281 283 284 283 283 281 280 279 278 278 279 280 281 281 282 282 282 282 282 282 282 281 281 281 282 283 282 282 282 282 283 283
276 274 277 276 278 279 280 276 277 279 284 282 281 282 283 288 285 277 275 281 287 288 290 291 290 291 291 289 290 287 290 292 292 290 287 284 284 285 283 283 285 284 284 283 285 286 284 282 281 278 277 277 277 278 279 282 283 280 279 278 277 276 277 277 278 279 279 280 280 280 280 280 280 280 280 280 281 281 282 281 281 281 281 282 282 282
274 274 275 276 276 276 277 275 276 279 284 287 283 287 288 285 275 276 285 286 286 287 286 290 290 290 289 289 290 292 293 293 293 288 286 286 288 286 283 282 283 283 282 282 283 284 282 280 278 276 276 276 276 276 277 279 280 278 276 275 274 275 276 276 277 278 278 278 278 278 278 278 279 279 281 280 280 280 280 280 281 281 281 280 280 281
276 275 274 276 275 275 275 274 273 272 281 289 286 284 286 283 283 286 285 286 287 286 288 287 289 289 289 289 290 292 292 290 290 290 289 289 287 286 284 283 282 282 283 282 282 282 281 278 276 274 274 274 274 274 275 277 277 275 274 272 273 274 275 276 277 277 277 277 277 277 277 277 277 278 279 279 279 279 279 279 279 280 280 280 280 280
283 276 275 276 279 273 275 273 275 280 283 289 288 283 285 289 291 288 289 287 287 288 288 289 288 290 289 290 290 290 291 290 288 287 288 285 285 285 284 283 283 282 281 281 280 280 279 276 275 273 273 273 273 273 273 275 274 273 272 271 273 274 275 275 276 276 276 276 276 276 277 277 276 277 277 277 277 278 278 277 278 278 278 278 278 277
284 282 283 278 283 279 278 281 285 281 287 289 290 288 290 291 292 290 290 290 289 289 289 290 290 290 290 289 289 289 289 287 289 288 286 284 283 283 282 281 281 280 279 278 278 278 277 275 274 272 272 272 272 272 271 272 272 271 270 271 272 273 273 274 275 275 274 274 274 273 273 274 275 275 274 275 276 275 276 275 275 275 275 275 275 275
286 287 287 284 283 286 288 288 288 284 285 288 289 289 288 289 290 291 289 289 292 288 289 289 287 286 284 284 286 285 285 285 284 283 283 282 283 282 281 279 279 278 277 277 277 278 276 276 274 272 271 271 271 271 270 270 269 268 269 270 270 271 272 273 272 272 272 272 272 272 271 272 273 273 274 274 275 275 275 274 274 274 273 273 273 272
283 283 284 282 283 281 279 288 286 286 285 287 289 290 290 289 289 290 290 288 289 288 286 285 287 285 284 284 284 284 283 282 283 283 282 282 281 279 277 276 275 275 274 274 275 277 276 275 273 272 270 269 269 269 269 268 267 267 268 268 269 269 270 271 271 271 271 270 271 270 270 270 271 272 273 272 272 272 272 272 272 273 273 273 272 271
278 285 283 284 284 282 282 286 284 289 290 289 289 289 288 290 291 289 288 286 285 283 282 282 282 281 281 280 281 282 282 281 281 281 281 280 278 277 276 275 274 273 273 272 272 274 273 272 271 270 269 268 268 268 267 266 266 266 266 267 267 268 270 270 270 270 269 270 270 269 269 269 272 271 270 271 271 270 270 271 273 273 273 272 273 273
283 285 280 284 283 285 287 287 286 283 284 287 288 288 288 286 287 285 282 280 280 280 280 278 278 278 277 277 278 280 279 279 279 279 278 277 276 275 274 273 272 272 271 270 269 269 269 269 268 267 266 266 266 265 265 264 265 265 265 266 266 267 267 269 269 268 268 268 268 268 269 269 269 269 268 269 272 272 272 271 272 273 272 274 274 274
284 282 285 282 279 280 281 284 285 282 282 286 285 281 279 280 281 281 278 277 276 276 278 276 275 275 275 275 276 277 277 277 277 277 275 275 274 274 274 273 272 271 270 269 268 267 266 266 265 264 264 264 264 263 263 263 263 264 265 265 266 266 266 267 268 267 267 267 267 267 267 267 267 267 267 267 266 269 272 274 274 273 271 271 274 275
285 285 285 281 281 281 286 287 288 287 288 285 277 276 277 277 277 276 274 275 275 275 276 276 276 274 273 274 274 275 275 276 276 276 274 274 273 273 272 272 271 270 269 269 267 266 265 265 264 263 263 263 263 262 262 262 262 262 263 264 265 265 265 266 267 268 267 267 267 268 267 266 266 266 265 265 265 265 267 269 272 273 273 273 272 272
Wind_Speed
3 3 4 7 7 7 5 9 11 12 10 6 6 4 4 6 7 6 2 2 1 2 6 8 9 11 14 14 15 11 7 10 14 13 12 11 10 10 8 7 6 5 4 1 1 3 2 3 3 2 1 2 4 3 4 5 5 5 7 8 8 7 8 8 9 9 10 10 8 7 10 11 9 9 7 7 7 8 7 8 8 9 8 8 7 7
1 3 8 6 5 7 5 6 11 12 11 9 6 5 7 5 7 6 1 1 2 1 3 5 11 14 13 13 14 13 10 15 15 11 11 13 11 8 7 7 6 4 1 1 0 1 3 2 2 2 1 0 2 3 4 5 5 5 6 8 7 7 8 8 9 9 10 9 11 12 11 9 9 9 10 9 7 8 7 8 8 9 7 8 8 8
2 9 8 6 2 3 3 0 0 2 4 4 4 4 6 7 6 5 5 1 0 1 7 5 9 15 17 16 17 17 16 15 14 12 13 10 8 5 2 3 2 1 1 1 2 4 4 4 3 2 2 3 4 4 5 5 5 6 6 7 7 7 8 8 8 9 10 8 6 7 6 9 6 4 5 6 6 7 7 8 8 9 8 8 8 8
3 8 12 1 2 3 2 2 1 1 2 4 4 4 7 4 3 4 1 1 1 2 4 5 10 15 17 15 16 16 13 11 11 12 14 9 5 0 1 3 3 2 1 2 1 5 5 5 5 5 5 5 5 4 5 5 6 5 5 5 7 7 7 7 7 8 7 6 5 5 6 6 6 5 5 5 5 6 7 8 8 8 8 8 8 8
6 0 2 1 1 3 4 2 2 3 6 5 6 6 6 4 3 1 3 3 5 7 7 4 8 10 8 9 7 5 5 8 10 8 7 6 0 2 1 0 2 2 1 1 2 0 4 4 6 6 6 4 5 4 4 5 5 4 5 5 6 7 7 6 7 7 7 7 6 6 6 5 6 4 6 6 7 8 7 7 8 9 8 8 8 8
9 2 2 3 2 1 2 3 4 4 5 3 7 11 6 3 3 4 4 6 4 3 3 1 7 6 3 7 12 14 5 5 3 6 7 6 3 4 1 2 3 2 3 3 3 2 0 0 2 4 5 4 4 4 4 4 5 4 5 5 5 5 6 7 7 7 7 8 9 9 10 10 8 8 10 13 15 12 11 11 6 7 8 8 8 8
2 0 1 2 4 4 3 4 4 5 4 1 3 1 2 1 2 2 4 2 3 1 1 1 1 10 6 10 14 13 6 9 5 7 4 2 3 3 2 4 4 5 5 3 2 2 2 2 2 4 5 5 5 4 3 2 2 3 4 4 5 4 5 5 6 7 7 7 8 10 10 11 12 13 10 6 5 8 7 6 8 8 7 8 9 8
3 2 2 1 2 3 3 4 3 7 3 4 1 2 2 0 2 2 1 0 4 2 3 4 5 4 12 12 13 9 6 6 6 4 3 1 1 2 3 5 4 2 1 1 1 1 0 0 2 1 4 4 4 4 4 4 2 3 4 4 5 4 5 5 6 7 7 8 7 8 8 8 8 9 8 8 7 6 6 7 8 7 7 8 8 8
1 1 3 3 3 3 5 1 2 3 4 1 1 3 1 0 1 2 0 3 3 4 7 2 1 1 5 11 14 9 8 7 3 5 4 3 3 4 4 4 3 1 0 0 1 1 0 0 1 2 4 5 5 4 4 4 3 3 4 5 5 5 5 6 7 7 6 6 7 7 7 7 5 6 6 6 7 8 8 8 7 8 8 7 7 8
2 1 4 3 4 4 2 1 2 2 3 0 2 2 1 1 0 1 1 1 2 0 7 5 5 3 6 9 13 7 5 4 5 7 6 7 6 6 3 2 1 1 1 1 1 1 1 1 2 3 3 4 4 3 3 4 4 3 2 4 5 5 4 5 6 7 6 5 6 7 7 7 6 6 6 8 8 8 8 9 8 8 8 8 7 7
2 1 0 1 3 1 2 1 0 2 1 0 2 3 3 3 1 0 1 1 1 3 10 9 7 3 3 7 10 4 1 1 5 5 5 6 5 5 3 3 2 2 2 2 2 1 1 3 3 1 2 4 4 3 3 4 4 3 3 4 5 5 4 6 6 7 8 7 6 7 8 8 8 8 7 9 8 8 8 10 9 9 8 8 8 7
3 2 0 1 3 3 3 3 1 2 1 0 1 2 2 1 1 1 0 1 0 5 3 1 3 2 4 8 7 5 3 6 3 0 4 5 5 4 4 2 2 3 1 2 3 2 2 2 2 2 4 4 4 4 4 4 4 4 4 4 5 5 5 6 7 7 7 7 7 6 7 8 7 8 7 10 11 10 11 10 10 8 7 8 8 8
3 5 2 3 5 3 3 2 0 2 2 0 1 2 1 1 2 1 1 1 4 6 0 0 3 1 7 14 8 12 15 8 6 2 0 3 5 3 2 2 3 1 2 4 3 2 1 1 1 2 4 4 4 5 5 5 4 5 5 5 6 6 6 6 7 8 7 7 8 7 7 7 8 8 8 8 9 9 10 9 9 9 9 8 8 9
1 3 3 3 1 4 2 5 2 1 3 3 2 3 2 0 2 4 3 3 2 1 3 1 2 3 6 9 9 13 9 2 1 0 1 2 2 1 1 1 0 1 4 2 1 1 1 1 1 0 1 2 3 4 4 5 5 4 5 6 6 7 7 6 7 8 8 8 8 7 7 7 7 8 8 7 9 8 9 9 10 11 11 11 12 11
3 2 3 4 2 1 3 1 2 0 7 7 2 1 2 0 1 1 1 3 1 0 1 3 1 5 0 4 2 1 2 6 5 1 3 3 2 2 4 2 1 4 3 2 1 2 2 1 0 0 1 1 1 3 4 4 4 4 5 5 6 6 7 6 7 6 7 7 6 6 6 6 6 7 7 7 7 8 9 8 9 10 9 9 9 10
6 3 1 2 1 1 4 1 1 1 1 4 2 4 1 5 0 3 1 0 2 2 1 1 5 3 6 5 10 10 8 1 1 0 2 1 3 2 4 3 3 3 3 2 2 3 3 2 1 1 2 3 3 4 4 5 5 5 5 5 6 6 6 7 7 6 7 7 6 6 7 7 6 6 6 6 6 7 9 9 10 10 9 9 8 8
0 4 0 1 3 0 2 2 1 0 2 1 4 3 3 1 0 1 1 1 1 2 7 3 5 7 5 8 12 11 1 2 1 0 1 1 3 1 3 4 4 4 3 3 2 4 4 4 3 3 3 4 4 4 5 6 6 6 5 5 6 6 5 7 7 7 6 7 7 7 7 7 7 7 8 9 8 8 8 9 9 9 9 8 8 8
2 1 2 0 1 1 1 3 1 1 0 2 1 3 4 1 0 2 2 0 2 4 4 5 6 6 2 7 3 4 1 4 4 2 2 3 5 3 4 5 5 5 4 4 4 4 4 4 5 5 4 5 5 5 5 5 5 5 5 5 6 5 6 5 7 7 7 7 7 6 7 7 7 7 6 6 6 6 7 7 7 7 7 9 9 9
2 3 0 2 3 1 1 0 2 1 1 0 1 0 1 1 0 3 0 2 2 2 3 3 5 7 6 6 1 4 4 5 5 5 5 5 5 6 6 6 5 4 4 4 5 4 2 3 4 5 6 6 5 5 4 4 5 5 5 5 5 7 7 7 6 6 6 6 6 5 6 6 6 5 5 5 4 4 6 6 7 7 8 7 7 8
0 1 1 2 1 2 1 1 3 2 1 1 2 2 1 1 2 3 4 2 1 3 3 6 3 8 4 5 6 9 7 6 6 6 7 8 8 7 6 6 7 6 5 5 4 1 0 1 4 6 6 5 5 5 5 5 5 6 6 6 6 5 5 6 7 7 7 7 6 6 5 5 6 6 6 6 5 6 5 6 6 6 6 8 8 8
2 3 4 0 3 2 2 5 6 10 8 2 1 2 1 1 2 1 2 2 2 1 1 2 7 4 3 5 6 6 3 4 3 3 6 6 7 7 6 7 6 5 5 5 3 1 2 2 2 4 5 5 5 4 5 5 6 7 6 6 7 8 7 6 7 7 7 7 7 6 7 6 6 6 6 6 6 7 6 5 6 6 7 5 8 8
1 2 4 3 2 4 5 1 1 2 8 10 12 9 10 7 1 1 8 0 1 2 3 1 10 11 7 1 2 5 3 0 1 2 2 3 8 6 5 5 6 5 5 4 2 2 4 4 4 4 2 3 4 5 5 6 5 5 5 6 5 5 5 6 6 7 7 6 6 7 6 6 5 6 6 6 7 7 7 7 7 7 6 8 7 7
2 0 1 4 6 8 2 0 1 1 1 1 6 6 8 5 3 3 3 4 1 3 2 1 2 13 1 9 7 4 4 4 1 1 1 1 1 5 5 5 5 6 5 4 3 4 5 5 5 5 4 5 5 6 6 5 5 6 6 5 6 7 8 9 8 7 6 6 6 6 6 6 6 6 7 7 7 8 8 8 7 7 8 8 7 6
5 1 1 4 1 1 1 0 0 1 1 1 4 2 2 10 10 7 2 2 4 1 1 1 3 11 1 3 1 4 4 4 2 4 5 4 3 4 5 6 6 5 6 3 2 5 6 6 5 4 5 5 5 5 5 5 5 5 5 5 5 6 5 3 3 3 4 4 5 5 5 6 6 7 7 8 8 8 8 7 6 5 6 6 5 7
4 4 3 1 2 0 1 1 1 2 0 3 3 6 6 2 2 2 2 1 1 7 8 8 11 11 3 4 4 2 1 3 4 5 5 5 5 5 5 6 6 6 4 3 5 6 7 6 6 5 5 5 5 4 4 4 4 5 5 4 5 4 3 3 3 4 4 5 5 5 6 6 6 7 7 7 6 7 6 5 5 5 6 6 6 6
3 3 6 4 6 6 3 1 4 6 9 3 3 3 6 10 6 4 4 3 4 5 12 5 8 16 12 4 5 5 4 5 6 6 6 6 6 7 6 6 6 5 5 5 6 6 8 8 6 5 5 5 5 5 5 4 4 4 3 3 3 3 2 3 2 3 4 4 4 5 5 5 5 5 5 5 5 5 5 5 5 6 5 6 7 6
2 1 5 7 8 9 7 1 2 4 4 5 3 6 7 8 7 5 1 2 10 9 8 9 11 16 18 14 13 15 10 9 9 5 4 4 5 7 6 5 5 5 6 6 7 8 7 6 6 6 6 5 5 5 5 5 4 3 2 1 0 1 1 1 3 3 3 3 4 4 4 4 4 4 4 4 4 4 4 5 5 5 6 5 6 6
1 2 7 9 8 10 7 2 4 6 4 5 5 7 8 8 10 10 9 13 9 4 15 9 12 11 19 22 19 19 18 11 11 12 7 5 5 4 5 5 6 5 6 5 6 7 8 7 6 5 5 4 4 4 4 4 4 3 2 1 1 2 3 1 1 3 3 3 3 4 4 4 4 4 4 4 4 4 4 4 4 5 5 5 5 6
2 4 5 5 10 11 9 10 6 3 4 4 7 7 9 10 8 12 16 19 8 11 16 7 8 12 18 19 23 22 17 15 13 12 9 7 5 2 3 5 6 7 6 6 7 7 6 6 6 5 5 4 3 4 4 3 3 4 3 1 1 1 3 4 3 2 4 4 4 4 4 4 3 3 3 3 3 3 3 4 4 4 5 5 5 5
1 6 4 5 7 8 9 9 5 9 10 10 10 9 9 11 15 20 20 17 17 16 14 15 17 20 14 15 21 22 15 10 11 8 8 9 9 6 5 6 7 6 7 7 7 6 6 7 6 5 5 5 4 3 3 4 4 4 4 4 3 3 2 4 3 4 4 4 4 4 4 4 3 2 2 2 3 3 3 3 3 4 4 5 5 5
6 3 7 3 5 9 11 7 7 9 8 15 10 7 8 12 17 20 15 13 15 19 18 22 22 19 16 18 21 22 20 15 11 12 14 14 13 10 6 7 7 7 8 8 6 6 6 6 6 5 5 5 4 4 4 4 4 4 4 3 3 2 3 3 2 2 2 3 3 3 2 2 2 2 2 3 2 2 2 3 3 3 3 4 4 5
5 4 1 1 2 8 4 5 8 7 12 16 15 9 11 18 19 14 15 14 13 17 21 18 13 16 21 23 20 19 20 20 19 17 13 11 10 8 7 7 6 7 9 8 6 5 6 6 6 5 5 5 4 4 4 4 4 4 3 4 4 4 3 1 1 2 2 1 0 1 1 1 1 1 1 0 1 1 1 1 1 1 3 3 3 4
7 4 3 1 6 8 5 4 3 4 11 19 15 14 22 25 19 11 12 11 20 23 16 12 20 20 22 18 16 15 14 16 16 12 10 8 6 5 5 5 7 9 8 6 6 6 7 6 5 5 5 4 4 4 4 5 5 4 4 4 4 3 2 1 1 1 1 2 1 1 1 1 1 0 0 0 0 0 0 0 1 1 2 3 3 2
5 5 3 5 4 1 2 2 2 5 15 17 6 23 25 23 20 21 19 23 27 17 17 19 21 15 12 14 19 22 19 16 11 11 7 7 4 1 4 8 10 9 8 8 6 7 7 5 2 4 4 5 5 5 4 5 5 4 4 3 2 1 2 2 3 2 3 3 2 2 1 1 0 0 0 0 0 0 0 0 1 2 2 2 2 2
9 5 4 4 2 2 1 2 4 13 22 0 9 17 24 25 23 26 29 26 22 18 19 17 16 17 21 20 20 20 16 9 3 6 7 5 3 4 9 14 12 8 8 8 6 6 5 4 5 6 5 5 5 4 5 5 5 4 4 3 3 2 2 3 4 4 4 3 3 2 1 2 1 0 0 0 0 0 0 1 1 1 2 2 3 3
8 9 3 3 2 0 3 5 3 21 1 0 1 2 2 5 6 6 14 19 18 16 18 20 21 22 24 25 22 17 14 5 3 5 11 9 4 9 13 13 10 7 6 6 6 4 5 5 6 7 5 4 4 4 4 4 3 4 4 3 4 4 4 4 4 4 4 4 4 3 3 2 1 1 1 1 0 0 1 1 2 3 3 2 2 2
12 5 5 4 5 8 6 9 20 13 21 19 2 2 8 7 9 13 11 20 21 21 17 17 21 23 26 22 19 18 6 2 7 13 15 7 9 12 12 12 9 5 4 3 6 6 5 6 7 6 5 5 4 4 4 3 2 3 4 4 4 4 4 5 5 4 4 5 4 4 4 3 2 2 2 1 1 1 1 0 1 1 0 0 1 1
6 12 6 6 6 9 7 10 6 6 16 15 10 12 14 14 15 17 12 25 8 17 18 22 24 26 21 17 17 12 1 2 10 13 13 3 11 7 5 5 2 3 5 5 5 6 5 5 5 4 6 6 5 3 2 1 2 4 5 5 4 5 6 6 5 4 4 3 3 3 4 4 4 3 3 2 1 1 1 1 1 0 0 0 1 1
5 2 3 14 6 6 9 10 10 11 21 4 5 12 17 14 11 6 4 17 4 16 18 23 24 20 15 14 15 4 5 6 12 14 9 3 4 2 3 2 5 5 5 5 6 7 6 5 5 5 6 6 5 4 2 0 1 4 5 5 6 6 6 5 4 3 3 2 3 4 4 4 4 4 3 3 2 2 2 2 1 0 1 1 0 1
2 4 4 7 12 9 6 8 17 8 12 2 8 7 12 7 12 8 2 11 5 14 17 17 18 16 13 13 5 9 10 10 13 13 6 6 4 3 3 5 5 5 5 5 5 6 7 6 7 7 7 7 6 5 5 4 1 3 4 5 6 7 6 4 3 3 3 3 4 4 5 5 5 4 4 3 3 3 2 1 2 3 2 2 1 1
7 4 6 19 15 15 13 12 7 13 12 5 1 1 6 10 8 10 20 7 10 10 11 13 16 14 11 8 9 9 13 15 12 5 6 5 5 3 4 4 4 4 5 5 5 7 7 7 8 8 7 5 5 6 6 5 4 5 5 6 7 7 5 4 4 4 4 4 5 6 5 5 4 4 4 4 3 2 2 2 3 3 3 3 3 2
1 2 3 5 12 13 10 10 17 16 13 10 3 12 10 11 7 20 3 3 8 8 5 10 11 11 9 10 10 12 12 13 8 6 6 5 5 4 4 5 5 6 5 4 5 6 8 9 9 8 8 6 7 6 6 4 7 5 6 7 8 6 6 5 5 4 5 5 5 5 5 5 5 4 4 4 4 4 4 4 4 4 4 5 4 3
14 11 11 14 7 1 3 9 7 18 5 26 10 8 10 12 14 7 4 1 4 8 7 5 7 8 8 8 11 12 10 7 7 8 7 6 7 7 7 6 5 6 6 6 6 4 5 8 9 9 7 7 7 7 7 6 8 6 6 8 7 5 5 5 6 5 5 5 5 5 5 5 6 5 5 5 5 3 4 4 4 4 5 5 4 4
14 9 7 6 5 8 12 14 16 5 6 18 21 15 13 18 11 7 7 8 5 4 5 6 6 9 9 10 9 10 10 8 6 6 3 4 4 5 7 7 6 7 8 8 6 5 7 9 8 9 8 8 8 9 9 8 8 7 8 9 6 7 7 7 6 5 5 5 6 6 5 5 5 5 5 5 4 4 6 6 5 5 5 5 4 5
16 16 10 10 10 12 14 17 13 3 9 10 16 5 14 18 14 6 9 9 8 9 7 8 8 4 2 5 6 7 8 6 2 2 4 3 6 6 6 5 8 9 9 8 7 6 6 8 9 9 9 9 10 9 9 9 8 9 8 7 7 7 7 6 5 5 6 6 6 5 5 4 4 5 4 4 4 5 6 5 5 5 5 6 6 5
7 17 11 6 10 16 17 15 10 3 3 8 9 5 4 10 10 10 6 5 1 1 2 3 3 4 5 4 3 2 3 3 6 6 6 6 7 7 8 9 9 9 9 8 7 6 7 8 9 10 10 10 10 9 9 9 9 9 7 6 7 7 6 5 5 5 5 5 5 5 5 5 5 4 5 5 6 6 6 5 5 5 5 6 5 4
7 2 8 13 7 6 15 22 19 8 5 10 14 12 8 2 7 9 9 3 3 4 6 5 6 6 5 7 6 5 5 5 7 6 6 7 7 7 8 9 9 9 9 8 7 5 5 7 8 9 9 10 9 8 8 8 8 7 6 7 7 7 6 4 5 5 4 5 5 4 5 4 4 3 4 6 6 7 6 6 5 5 5 4 4 4
5 10 9 13 17 19 21 12 6 17 19 13 11 11 11 12 3 5 5 6 6 6 6 5 4 7 5 7 4 5 6 6 7 5 6 6 6 7 7 8 8 9 9 8 8 7 8 9 8 8 9 9 8 8 8 8 8 8 7 7 7 6 6 4 4 4 4 5 4 3 3 4 6 6 5 6 6 6 6 5 4 5 5 4 4 4
4 11 13 13 17 13 15 18 9 3 3 8 11 6 1 3 3 5 6 8 6 7 7 9 10 6 7 5 4 5 7 6 5 6 7 6 7 7 7 8 9 9 8 8 8 8 8 7 9 9 9 8 7 7 7 8 7 7 8 7 7 7 5 4 2 4 4 3 3 4 4 5 6 6 6 5 5 5 4 4 4 4 4 6 5 5
5 16 13 8 10 12 17 16 8 10 11 10 4 4 6 5 3 5 7 9 8 7 4 8 9 9 9 8 7 7 7 5 6 7 9 8 8 8 8 8 8 9 8 8 7 8 9 9 9 9 9 8 7 7 7 7 8 7 7 7 6 6 4 4 2 4 4 3 4 5 5 6 6 6 6 6 5 3 4 8 10 7 5 4 10 14
18 16 10 11 10 15 15 15 8 10 11 1 4 4 5 6 5 9 9 7 7 6 6 6 6 8 10 10 9 8 7 7 7 8 9 8 9 8 9 9 8 8 7 7 8 8 9 9 8 9 9 7 6 7 7 7 8 8 8 8 7 7 7 7 5 5 6 6 7 7 7 7 7 6 6 6 6 6 4 2 4 9 11 11 11 11
Wind_Direction
129 159 195 209 218 219 210 218 234 252 273 305 309 315 302 299 282 273 287 156 178 292 249 258 265 267 269 271 278 278 272 265 268 271 268 265 256 248 244 240 240 226 227 208 91 85 86 86 88 78 73 125 139 162 159 164 170 158 153 149 170 170 166 163 168 174 174 174 173 178 184 185 177 178 173 175 175 171 171 167 159 164 169 169 168 170
149 207 237 226 222 232 254 232 223 242 256 282 301 289 282 269 279 278 290 179 59 73 294 326 295 280 275 281 281 287 280 271 264 261 259 260 256 244 220 221 216 217 93 80 256 164 97 87 69 62 53 6 165 188 159 170 176 173 161 160 165 165 169 175 177 178 184 187 187 181 184 173 171 171 178 181 175 172 166 167 162 165 168 167 169 171
164 225 239 237 237 212 199 256 97 215 273 282 265 279 286 269 265 278 69 81 56 99 274 298 313 292 287 281 277 269 264 261 262 253 251 246 256 261 234 180 171 92 29 340 225 141 146 134 150 148 188 215 220 190 184 178 169 178 174 162 160 171 173 180 177 179 189 186 184 179 172 168 165 172 169 164 166 160 166 171 165 165 171 166 170 170
237 245 234 137 254 222 219 175 171 332 248 238 253 249 246 266 295 301 348 11 211 176 285 321 305 289 286 278 270 267 255 251 246 242 250 244 227 216 47 77 79 62 44 275 155 171 156 171 175 182 189 193 203 195 175 178 180 177 180 168 164 173 174 178 183 181 187 179 168 158 147 148 155 164 157 151 155 162 159 174 173 171 170 166 169 171
217 301 87 232 167 219 231 175 178 197 250 220 222 248 254 264 273 201 311 323 304 245 225 306 288 282 264 276 301 278 281 234 234 239 257 282 328 127 86 6 160 178 186 231 292 126 156 169 179 188 184 164 173 204 182 178 181 175 182 177 170 170 177 179 179 177 173 160 159 149 137 132 121 113 148 156 182 184 179 167 178 177 170 169 170 171
262 186 344 154 185 166 227 234 210 198 252 268 222 216 235 294 309 329 339 342 345 334 47 29 350 288 325 327 305 291 301 253 235 207 245 263 267 96 153 222 191 194 194 189 217 224 175 206 142 135 140 157 191 195 198 168 180 160 175 172 171 163 170 173 176 173 168 172 169 162 162 167 165 169 173 186 189 184 185 185 167 166 173 169 169 173
237 74 221 213 156 205 220 224 213 168 228 313 275 31 18 290 324 323 292 343 311 283 300 69 67 282 294 286 286 283 287 254 231 204 229 35 93 126 190 187 164 189 211 226 217 217 196 218 171 180 165 170 188 193 139 114 154 143 159 160 165 158 160 161 166 171 166 174 180 182 182 181 180 181 196 183 165 177 175 153 171 173 172 173 172 176
102 156 71 310 195 198 219 227 202 160 175 250 308 326 350 266 186 240 287 261 248 312 285 165 161 243 301 290 273 280 282 257 251 122 70 44 92 177 184 161 166 176 175 170 229 250 214 163 166 170 145 155 125 113 121 144 179 168 174 164 166 162 159 168 166 178 174 177 182 183 184 188 190 190 182 175 169 156 156 165 170 170 178 176 177 174
144 153 205 168 202 188 220 196 336 172 173 212 256 304 331 3 353 326 126 279 262 334 288 228 151 273 258 276 282 288 293 269 183 125 126 137 191 190 180 184 181 160 135 136 305 315 338 14 48 74 99 104 115 130 144 158 175 181 181 173 166 177 161 169 166 177 188 178 185 184 183 188 198 178 168 159 155 161 163 169 168 173 179 179 181 177
295 179 181 180 146 211 141 10 4 4 224 114 247 258 273 291 335 248 304 239 291 217 268 252 178 207 281 273 285 301 263 260 146 138 152 165 183 190 179 125 133 182 167 126 80 37 24 59 81 95 106 113 110 121 128 138 146 168 167 156 161 180 163 161 163 175 191 187 182 184 191 188 190 178 166 163 168 167 166 174 176 175 176 180 182 183
142 53 71 152 206 108 130 93 96 29 123 226 257 245 220 208 190 308 154 226 342 256 250 244 186 157 304 257 249 290 299 302 118 143 170 171 166 156 138 133 102 70 50 43 46 59 48 116 105 109 138 122 112 128 151 136 150 159 157 167 164 189 171 160 173 174 188 195 191 189 191 191 189 184 167 165 172 167 171 179 180 178 179 178 185 181
159 105 226 247 82 128 125 98 343 237 332 220 209 237 284 281 131 144 226 87 194 269 233 318 158 152 177 286 259 202 145 45 357 28 169 167 154 133 131 110 98 79 56 42 53 35 15 102 156 172 143 143 153 156 144 154 156 161 174 170 175 194 184 169 176 180 190 193 204 194 188 193 193 183 180 177 178 178 179 179 178 176 167 180 183 186
225 205 136 78 300 163 191 126 247 193 224 97 289 324 88 263 48 338 52 311 217 225 286 74 92 347 246 239 275 301 294 297 264 247 247 146 145 110 77 78 90 102 76 61 46 28 15 78 99 123 146 148 167 172 171 172 174 174 177 180 180 198 194 181 175 183 191 192 202 199 192 192 192 193 191 182 179 179 178 178 174 173 181 173 179 192
276 18 131 101 79 242 207 170 170 318 215 166 161 159 123 197 225 260 223 220 206 319 264 182 244 257 263 284 246 252 268 247 95 227 141 122 112 110 120 86 61 123 98 92 91 48 85 64 79 135 161 161 172 170 175 175 174 186 186 187 184 197 190 185 181 186 193 198 198 200 197 192 189 200 195 192 181 182 179 177 181 183 185 184 189 187
296 315 212 158 226 91 216 300 161 145 159 208 204 170 193 197 208 236 206 211 238 187 209 298 39 234 141 243 203 226 262 275 263 213 153 166 166 143 156 172 154 94 122 141 155 152 138 156 135 197 169 166 177 174 180 179 196 180 193 194 195 196 191 184 184 185 194 201 201 201 202 199 195 198 199 198 183 178 179 184 184 190 188 189 190 190
208 223 226 348 178 124 183 81 133 350 130 205 203 69 56 234 94 206 220 67 300 354 322 238 207 224 206 280 302 290 284 274 75 36 189 113 106 117 98 109 127 139 151 162 168 151 153 156 185 203 197 197 195 194 183 194 195 197 200 197 199 200 191 184 183 191 193 199 196 198 198 204 201 200 200 203 195 188 183 185 187 190 190 191 184 184
50 253 305 182 241 76 21 341 118 85 165 264 85 202 209 325 93 310 355 41 70 83 255 195 282 277 273 285 259 260 7 162 22 43 84 123 130 98 144 157 178 178 168 178 194 186 167 164 175 192 194 198 196 203 203 203 195 194 199 196 201 204 200 188 189 190 191 195 193 202 198 198 203 203 202 203 202 195 188 185 189 188 190 183 180 181
167 251 321 103 257 341 27 0 317 317 76 72 185 251 305 261 74 134 229 313 225 214 259 185 240 277 342 302 328 90 174 239 180 196 204 179 151 156 201 196 195 184 191 192 204 202 181 172 183 195 208 201 199 200 202 208 194 193 194 193 197 200 207 208 188 192 192 195 200 200 201 204 206 210 217 213 208 203 192 194 189 184 184 190 186 180
93 299 265 309 37 31 308 10 337 318 113 121 206 136 118 189 211 246 119 276 248 256 269 260 252 255 185 236 263 265 237 225 215 185 180 177 178 200 196 200 195 177 176 214 225 215 192 181 195 203 205 213 205 195 190 194 183 184 198 207 196 199 201 201 196 193 197 194 200 199 199 199 205 209 218 228 223 208 205 201 194 192 192 183 181 175
23 203 290 298 336 153 48 114 198 215 347 335 354 319 214 61 250 142 203 221 88 264 9 291 316 269 186 211 207 244 247 263 200 171 189 194 194 191 192 189 183 187 204 222 221 232 84 206 209 207 206 203 205 201 197 190 184 191 202 204 214 215 202 195 195 189 194 198 193 197 194 199 195 200 203 209 211 220 215 208 198 195 189 192 185 184
227 129 262 194 324 43 233 185 221 160 171 204 155 272 356 232 212 108 305 195 176 203 219 310 300 257 233 204 193 218 247 300 305 241 206 187 182 187 190 179 182 191 205 222 239 317 290 269 243 220 211 213 208 197 185 186 195 205 202 207 204 201 209 203 204 190 197 188 195 191 197 197 192 198 196 200 204 213 217 212 204 202 197 182 197 183
176 148 204 112 202 218 243 161 220 193 186 182 171 204 187 144 175 153 273 76 158 116 249 201 264 281 227 264 238 243 243 107 296 30 300 197 168 177 175 182 176 191 216 230 273 304 299 283 270 271 233 204 206 225 225 226 213 216 211 210 207 209 210 208 210 200 196 192 188 192 193 193 190 192 192 198 204 210 212 212 208 203 194 201 201 188
154 177 212 203 201 212 215 255 293 69 91 168 173 221 174 203 152 151 199 249 24 249 78 182 58 270 191 186 222 206 158 206 203 175 202 283 164 163 188 196 203 195 209 243 283 295 278 263 262 257 247 236 230 236 231 226 206 210 216 216 213 200 211 200 205 200 191 187 186 189 187 186 192 190 197 198 204 208 210 212 212 201 204 207 201 198
76 243 236 271 29 336 269 227 113 12 320 309 271 244 172 203 197 201 184 161 169 153 174 220 183 264 305 10 139 143 182 178 176 200 202 237 229 194 191 202 206 221 249 268 302 277 267 267 268 275 278 263 252 245 239 224 211 208 211 215 212 223 243 248 233 203 182 182 186 183 181 187 193 195 200 204 205 208 211 213 215 205 211 209 200 205
126 240 166 280 265 315 334 353 345 343 33 240 217 205 216 288 256 220 96 267 305 201 198 154 234 272 233 237 224 206 182 226 226 244 211 217 250 233 224 225 225 234 261 276 261 259 272 284 284 272 255 251 248 246 238 220 206 205 218 214 213 221 215 209 190 175 180 175 183 191 191 201 198 204 208 211 209 215 212 214 210 207 208 200 206 205
180 190 141 184 212 237 229 256 238 232 218 217 259 219 198 201 207 105 245 210 209 248 218 208 254 256 262 303 299 260 235 253 244 234 236 216 226 235 234 237 229 221 226 240 256 273 273 266 266 267 264 256 246 230 227 221 210 210 215 220 204 199 195 202 163 160 164 171 180 200 205 211 208 213 217 219 222 218 211 209 206 207 211 199 208 204
195 273 200 200 198 222 217 196 269 101 83 184 237 188 207 207 204 202 15 160 214 234 241 232 235 265 283 276 271 273 262 264 282 272 268 268 251 239 230 214 214 208 219 234 251 262 275 282 266 256 252 240 231 228 215 201 197 196 194 214 194 147 133 151 153 162 161 171 180 198 214 212 217 216 218 217 218 216 210 208 207 201 207 205 204 205
8 252 240 236 240 243 249 236 192 158 162 205 161 209 201 187 200 200 198 227 212 259 257 230 237 248 264 275 270 268 269 262 262 271 269 257 259 241 198 210 217 228 246 256 269 275 270 267 264 258 248 238 228 219 219 202 180 169 165 176 155 147 147 133 128 158 167 170 190 198 217 216 210 208 212 209 208 211 212 209 206 206 205 192 204 206
187 225 244 231 251 257 258 263 249 263 221 212 196 185 191 196 191 203 222 229 204 213 243 242 223 232 248 257 269 265 263 271 267 265 266 256 240 228 206 215 226 235 244 253 260 262 266 268 261 258 258 241 212 208 210 191 170 149 150 140 144 129 160 159 162 179 172 178 189 206 204 208 202 193 191 195 201 203 211 210 205 201 198 194 200 202
87 241 253 238 263 264 267 263 264 257 263 254 233 216 190 189 205 210 221 224 222 238 245 253 253 246 246 260 262 268 267 255 268 288 289 284 276 263 231 239 243 247 253 258 256 253 252 256 254 250 246 246 216 211 196 179 176 167 160 179 177 159 175 133 162 172 181 181 196 201 194 184 180 174 177 185 199 211 211 207 209 199 201 204 200 197
154 260 176 239 263 261 264 270 268 265 262 262 247 218 204 213 220 217 222 228 232 244 247 250 250 263 261 252 262 271 275 278 282 275 275 282 288 285 263 245 246 251 257 256 253 252 248 248 250 248 239 237 217 202 189 185 163 137 134 137 139 139 150 133 159 179 173 201 206 191 174 154 184 173 184 206 199 205 203 217 211 203 207 211 205 201
140 248 89 121 280 263 252 253 255 260 256 255 246 204 220 228 232 219 219 215 217 230 235 244 260 255 256 256 254 260 273 276 275 275 272 269 270 268 252 246 234 240 250 256 256 261 261 251 249 237 229 226 206 182 163 141 123 119 142 141 120 107 89 95 144 177 192 219 121 110 130 155 162 131 201 135 197 206 223 219 222 222 217 219 224 229
177 163 188 153 241 255 253 265 332 318 318 277 226 197 218 226 224 232 235 222 221 221 231 227 237 235 243 253 264 259 248 260 265 268 279 274 254 226 216 222 237 243 249 254 262 261 257 248 232 215 204 179 163 144 140 130 108 111 106 95 120 111 123 173 160 171 139 108 80 59 47 47 62 53 56 282 220 305 56 23 311 296 295 264 255 258
161 181 172 144 208 120 355 27 28 19 270 257 126 193 206 218 219 224 228 222 229 207 221 219 236 247 256 255 253 256 255 249 254 265 245 248 267 204 229 233 239 249 261 264 251 247 251 250 202 165 147 133 119 116 112 105 110 106 101 108 99 115 188 160 164 129 110 93 89 91 83 106 96 136 265 204 100 97 96 111 241 245 247 249 277 257
178 172 209 170 223 215 128 78 5 262 256 279 189 188 198 211 214 218 228 228 233 227 238 249 253 253 249 248 248 254 259 267 230 249 278 235 202 235 254 263 261 249 250 258 258 245 234 200 131 115 101 104 117 114 107 87 91 91 81 91 101 86 105 96 101 89 93 90 79 70 55 41 49 27 346 14 100 111 152 214 258 269 256 229 228 232
177 173 161 238 196 290 121 172 196 244 187 250 335 213 315 232 253 277 280 261 245 231 227 235 241 245 248 251 254 255 263 290 273 250 260 265 215 243 259 262 259 244 246 234 225 212 159 142 142 136 136 141 106 92 87 100 91 95 112 108 104 93 80 89 85 71 54 56 51 43 35 50 22 358 354 349 354 126 222 234 226 229 250 233 251 258
162 170 173 235 156 216 192 198 230 301 317 265 231 216 164 159 178 184 234 252 218 222 212 230 238 238 243 246 254 262 266 1 314 286 266 245 253 243 236 246 242 227 199 191 147 139 137 127 121 135 127 108 100 94 86 82 83 101 101 86 79 89 76 73 64 52 50 50 41 29 28 30 41 14 5 13 27 2 325 335 318 307 255 346 306 264
182 186 182 187 237 192 224 250 269 286 255 275 170 212 182 185 173 192 184 269 170 196 198 218 231 237 240 244 249 253 71 284 282 268 273 217 225 234 251 228 178 137 119 110 92 101 94 86 79 83 109 106 83 83 91 99 109 114 108 117 112 93 76 72 57 44 47 45 38 35 36 35 43 38 22 35 29 6 358 4 6 355 204 168 258 309
351 33 159 195 227 154 212 225 243 233 249 155 206 179 190 182 166 133 101 257 153 185 192 207 228 236 231 230 238 136 149 225 248 252 257 218 222 149 138 133 114 108 98 108 136 128 112 106 112 98 82 77 66 18 357 350 165 128 126 124 106 95 84 69 52 28 16 11 40 53 47 50 41 36 41 35 19 42 40 13 357 309 60 59 74 285
234 187 165 223 224 219 198 215 239 210 262 210 183 183 189 136 122 111 235 264 165 203 195 203 219 229 226 229 179 157 173 218 238 249 221 190 150 74 120 143 127 112 97 92 78 114 121 116 99 72 59 50 23 358 351 333 5 100 101 87 85 78 69 52 18 335 344 29 52 51 43 40 38 27 39 29 6 16 10 352 25 15 41 5 36 2
200 235 202 215 219 217 210 245 295 276 238 156 190 65 118 134 125 153 214 222 202 189 188 189 210 220 216 209 161 193 211 215 226 207 130 125 95 79 60 71 88 108 126 115 114 102 92 81 84 82 73 51 27 10 357 356 56 54 53 59 62 54 32 4 353 352 9 43 51 46 44 33 29 25 18 9 351 334 357 47 40 12 14 354 334 352
235 160 268 244 234 221 218 229 244 266 255 147 177 138 141 111 191 219 215 186 153 202 226 186 198 216 205 193 191 208 220 223 219 129 150 143 142 154 134 117 97 79 71 72 77 93 101 96 88 80 62 44 35 24 13 35 75 59 54 54 43 19 354 354 352 3 41 44 50 48 40 35 12 16 17 356 359 13 26 24 32 18 21 6 8 16
183 165 195 204 202 208 188 236 283 262 255 140 160 147 181 179 220 203 218 269 176 176 195 222 200 223 191 209 203 209 225 231 217 204 189 164 140 159 167 162 138 111 84 66 50 45 84 88 84 73 63 42 35 28 19 50 76 69 64 52 24 350 354 355 1 17 45 43 43 42 40 31 24 13 10 3 355 23 41 21 25 15 37 16 0 357
162 181 193 208 159 166 191 207 221 224 110 163 144 184 199 215 215 171 180 238 250 186 196 205 224 217 205 202 198 212 220 220 234 222 158 113 108 99 85 79 80 79 79 71 61 45 85 89 84 77 62 48 43 36 31 44 63 60 56 38 5 354 1 3 6 18 38 41 38 32 30 32 29 15 9 8 13 33 42 25 18 37 36 26 28 31
179 209 156 191 183 177 210 224 227 146 171 193 179 186 197 207 219 195 189 204 204 231 214 216 229 240 193 200 198 196 212 223 204 113 122 121 86 88 88 84 84 85 78 64 49 53 74 92 91 85 69 54 48 44 40 39 59 59 48 21 12 2 2 360 9 31 34 39 35 28 11 17 37 29 12 9 30 42 38 29 33 41 19 38 37 41
173 201 202 216 218 227 246 239 237 157 174 207 248 246 212 226 230 235 224 229 237 73 46 153 79 81 44 45 111 60 75 76 88 72 79 88 100 106 98 82 67 63 65 60 51 59 85 86 88 84 79 63 51 51 50 44 48 50 34 14 10 358 352 5 18 36 32 27 39 27 24 25 11 23 25 19 30 40 38 41 34 46 27 36 37 34
235 166 196 228 214 190 247 238 239 244 225 205 215 236 246 186 215 225 241 248 99 79 68 54 91 78 78 55 66 92 61 59 70 60 70 76 69 69 75 79 73 65 60 52 26 37 75 86 84 81 77 69 54 51 51 53 48 42 25 18 6 358 350 19 29 37 31 28 30 27 30 29 19 15 32 36 31 29 28 33 36 45 45 41 31 18
260 182 217 218 223 219 242 250 178 216 226 218 207 212 225 239 238 45 79 85 95 76 73 49 49 53 46 60 40 73 68 50 67 68 76 69 71 65 65 66 71 67 58 50 27 42 64 65 70 71 72 64 51 51 50 48 42 31 25 18 9 351 352 25 41 37 30 32 29 29 42 41 29 29 31 48 44 33 24 13 39 46 54 36 17 29
192 137 219 196 229 240 266 265 244 37 311 242 230 207 63 12 54 75 59 59 59 67 69 60 60 69 65 61 25 71 80 51 57 79 85 78 69 67 68 74 70 68 61 50 44 50 57 60 67 68 69 62 47 45 47 44 35 25 23 17 7 359 358 1 38 64 50 40 32 26 32 39 38 33 30 33 55 64 60 43 1 56 40 39 33 32
159 217 216 178 229 230 231 239 223 246 246 239 200 33 24 352 40 85 61 53 43 45 45 84 68 60 62 42 37 57 74 61 55 74 78 71 64 63 73 79 79 77 76 70 65 65 68 67 70 70 68 59 49 43 43 37 31 21 17 16 8 6 351 352 24 71 47 45 40 32 33 35 33 30 28 28 18 35 60 71 71 55 61 19 36 47
226 233 223 217 202 237 240 251 250 246 251 29 68 35 34 10 59 65 58 64 53 47 36 65 84 66 54 46 34 47 56 59 62 77 79 73 70 65 57 62 66 66 65 69 73 65 66 65 64 68 65 59 52 49 44 38 27 19 9 11 359 10 11 12 33 42 38 28 29 32 28 29 29 27 28 18 22 11 18 32 64 80 68 55 55 48